Volver al catálogo

STARLINK-35244

ActivoComunicacionesVLEO
NORAD 65829·PAYLOAD·🇺🇸 United States

Lanzado Sep 29, 2025 desde Vandenberg Space Force Base

Loading…

Próximos Pases (próximas 24 horas)

TLE

ActualizadoSource: CelesTrak SupGP

Época: Sep 14, 2026, 15:15 UTC

1 65829C 25221G   26257.63590278  .00008132  00000+0  26161-3 0  2573
2 65829  53.1571 292.2894 0001173  79.2972 159.4877 15.31685595    18

Sigue STARLINK-35244 en tiempo real con AllMySat

Download on the App Store